Darstellungsparameter: Aktuell verwendete Einstellungen:
Skalierung der Graphiken ... ?
xyx+y,   Skalierungsfaktor:      Skalierung: Modus: x, Faktor: 1
Darstellungszeitraum ... ?
Vom - - bis: - -   Zeitraum: 02.03.2021 - 02.03.2021
Min/Max/Avg-Anzeige ... ?
Zeige MMA aktuell
Zeige MMA Monat
Zeige MMA alles
Zeige --A aktuell
Zeige --A Monat
Zeige --A alles
Keine MMA-Anzeige
MMA:
Minimum Maximum Average (ber die Originaldaten)
MMA-Basis: 14.04.2020 - 16.05.2020
Quicknavigation für Darstellung... ?
Tage:      1T, 2T, 3T, 5T -1T -2T -3T -5T +1T +2T +3T +5T
Wochen: 1W, 2W, 3W -1W -2W -3W +1W +2W +3W
Monate: 1M, 3M, 6M -1M -3M -6M +1M +3M +6M
Jahre:    1J, 3J, 5J, 10J -1J -3J -5J -10J +1J +3J +5J +10J
Nutze für die Darstellung ... ?
Originaldaten oder Mittelwerte auf ...
Stundenbasis Tagesbasis Wochenbasis
Monatsbasis Jahresbasis      Datenbasis: Original-Daten
Darstellen als:
Statistik (Auto) Statistik J:M      Darstellung:

Der gewünschte Datumsbereich war nicht gültig/verfügbar und wurde korrigiert....
Das angegebene Enddatum (12.05.2030 23:59:59) liegt in der Zukunft.
Das angegebene Startdatum (13.11.2029 00:00:00) liegt in der Zukunft.


Zur Graphik,    zurück zur Übersicht aller Sensoren.
 
Tabellarische Datenbersicht: ?
 
Sensor: Nr:Datum:Temp:Abs-Feuchte:Windchill:Wind:
Aussen-T/F 1 02-03-2021 01:00:00 1.8 C 5.1 g/m*3 1.8 C 0 km/h
2 02-03-2021 01:05:00 1.8 C 5.1 g/m*3 1.8 C 0 km/h
3 02-03-2021 01:10:00 1.8 C 5.1 g/m*3 1.8 C 0 km/h
4 02-03-2021 01:15:00 1.8 C 5.1 g/m*3 1.8 C 0 km/h
5 02-03-2021 01:20:00 1.7 C 5.06 g/m*3 1.7 C 0 km/h
6 02-03-2021 01:25:00 1.7 C 5.06 g/m*3 1.7 C 0 km/h
7 02-03-2021 01:30:00 1.7 C 5.12 g/m*3 1.7 C 0 km/h
8 02-03-2021 01:35:00 1.7 C 5.12 g/m*3 1.7 C 0 km/h
9 02-03-2021 01:40:00 1.6 C 5.08 g/m*3 1.6 C 0 km/h
10 02-03-2021 01:45:00 1.6 C 5.08 g/m*3 1.6 C 0 km/h
11 02-03-2021 01:50:00 1.4 C 5.01 g/m*3 1.4 C 0 km/h
12 02-03-2021 01:55:00 1.4 C 5.01 g/m*3 1.4 C 0 km/h
13 02-03-2021 02:00:00 1.3 C 4.98 g/m*3 1.3 C 0 km/h
14 02-03-2021 02:05:00 1.2 C 4.95 g/m*3 1.2 C 0 km/h
15 02-03-2021 02:10:00 1.3 C 4.98 g/m*3 1.3 C 0 km/h
16 02-03-2021 02:15:00 1.3 C 4.98 g/m*3 1.3 C 0 km/h
17 02-03-2021 02:20:00 1.2 C 4.95 g/m*3 1.2 C 0 km/h
18 02-03-2021 02:25:00 1.1 C 4.91 g/m*3 1.1 C 0 km/h
19 02-03-2021 02:30:00 1 C 4.88 g/m*3 1 C 0 km/h
20 02-03-2021 02:35:00 0.9 C 4.85 g/m*3 0.9 C 0 km/h
21 02-03-2021 02:40:00 0.8 C 4.81 g/m*3 0.8 C 0 km/h
22 02-03-2021 02:45:00 0.7 C 4.78 g/m*3 0.7 C 0 km/h
23 02-03-2021 02:50:00 0.6 C 4.75 g/m*3 0.6 C 0 km/h
24 02-03-2021 02:55:00 0.6 C 4.75 g/m*3 0.6 C 0 km/h
25 02-03-2021 03:00:00 0.6 C 4.75 g/m*3 0.6 C 0 km/h
Sensor: Nr:Datum:Temp:Abs-Feuchte:Windchill:Wind:
Aussen-T/F 26 02-03-2021 03:05:00 0.6 C 4.75 g/m*3 0.6 C 0 km/h
27 02-03-2021 03:10:00 0.4 C 4.68 g/m*3 0.4 C 0 km/h
28 02-03-2021 03:15:00 0.4 C 4.68 g/m*3 0.4 C 0 km/h
29 02-03-2021 03:20:00 0.3 C 4.65 g/m*3 0.3 C 0 km/h
30 02-03-2021 03:25:00 0.3 C 4.65 g/m*3 0.3 C 0 km/h
31 02-03-2021 03:30:00 0.3 C 4.65 g/m*3 0.3 C 0 km/h
32 02-03-2021 03:35:00 0.2 C 4.62 g/m*3 0.2 C 0 km/h
33 02-03-2021 03:40:00 0.2 C 4.62 g/m*3 0.2 C 0 km/h
34 02-03-2021 03:45:00 0.2 C 4.62 g/m*3 0.2 C 0 km/h
35 02-03-2021 03:50:00 0.2 C 4.67 g/m*3 0.2 C 0 km/h
36 02-03-2021 03:55:00 0.2 C 4.62 g/m*3 0.2 C 0 km/h
37 02-03-2021 04:00:00 0.2 C 4.62 g/m*3 0.2 C 0 km/h
38 02-03-2021 04:05:00 0.1 C 4.63 g/m*3 0.1 C 0 km/h
39 02-03-2021 04:10:00 0.1 C 4.63 g/m*3 0.1 C 0 km/h
40 02-03-2021 04:15:00 0.1 C 4.63 g/m*3 0.1 C 0 km/h
41 02-03-2021 04:20:00 0.1 C 4.63 g/m*3 0.1 C 0 km/h
42 02-03-2021 04:25:00 0.1 C 4.63 g/m*3 0.1 C 0 km/h
43 02-03-2021 04:30:00 0.1 C 4.63 g/m*3 0.1 C 0 km/h
44 02-03-2021 04:35:00 0.1 C 4.63 g/m*3 0.1 C 0 km/h
45 02-03-2021 04:40:00 -0.1 C 4.57 g/m*3 -0.1 C 0 km/h
46 02-03-2021 04:45:00 -0.1 C 4.57 g/m*3 -0.1 C 0 km/h
47 02-03-2021 04:50:00 -0.2 C 4.54 g/m*3 -0.2 C 0 km/h
48 02-03-2021 04:55:00 -0.2 C 4.54 g/m*3 -0.2 C 0 km/h
49 02-03-2021 05:00:00 -0.3 C 4.51 g/m*3 -0.3 C 0 km/h
50 02-03-2021 05:05:00 -0.3 C 4.51 g/m*3 -0.3 C 0 km/h
Sensor: Nr:Datum:Temp:Abs-Feuchte:Windchill:Wind:
Aussen-T/F 51 02-03-2021 05:10:00 -0.3 C 4.51 g/m*3 -0.3 C 0 km/h
52 02-03-2021 05:15:00 -0.3 C 4.51 g/m*3 -0.3 C 0 km/h
53 02-03-2021 05:20:00 -0.3 C 4.51 g/m*3 -0.3 C 0 km/h
54 02-03-2021 05:25:00 -0.3 C 4.51 g/m*3 -0.3 C 0 km/h
55 02-03-2021 05:30:00 -0.3 C 4.51 g/m*3 -0.3 C 0 km/h
56 02-03-2021 05:35:00 -0.3 C 4.51 g/m*3 -0.3 C 0 km/h
57 02-03-2021 05:40:00 -0.3 C 4.51 g/m*3 -0.3 C 0 km/h
58 02-03-2021 05:45:00 -0.4 C 4.48 g/m*3 -0.4 C 0 km/h
59 02-03-2021 05:50:00 -0.4 C 4.48 g/m*3 -0.4 C 0 km/h
60 02-03-2021 05:55:00 -0.4 C 4.48 g/m*3 -0.4 C 0 km/h
61 02-03-2021 06:00:00 -0.4 C 4.48 g/m*3 -0.4 C 0 km/h
62 02-03-2021 06:05:00 -0.4 C 4.48 g/m*3 -0.4 C 0 km/h
63 02-03-2021 06:10:00 -0.6 C 4.42 g/m*3 -0.6 C 0 km/h
64 02-03-2021 06:15:00 -0.6 C 4.42 g/m*3 -0.6 C 0 km/h
65 02-03-2021 06:20:00 -0.5 C 4.45 g/m*3 -0.5 C 0 km/h
66 02-03-2021 06:25:00 -0.4 C 4.48 g/m*3 -0.4 C 0 km/h
67 02-03-2021 06:30:00 -0.4 C 4.48 g/m*3 -0.4 C 0 km/h
68 02-03-2021 06:35:00 -0.4 C 4.48 g/m*3 -0.4 C 0 km/h
69 02-03-2021 06:40:00 -0.4 C 4.48 g/m*3 -0.4 C 0 km/h
70 02-03-2021 06:45:00 -0.4 C 4.48 g/m*3 -0.4 C 0 km/h
71 02-03-2021 06:50:00 -0.5 C 4.45 g/m*3 -0.5 C 0 km/h
72 02-03-2021 06:55:00 -0.5 C 4.45 g/m*3 -0.5 C 0 km/h
73 02-03-2021 07:00:00 -0.4 C 4.48 g/m*3 -0.4 C 0 km/h
74 02-03-2021 07:05:00 -0.4 C 4.52 g/m*3 -0.4 C 0 km/h
75 02-03-2021 07:10:00 -0.3 C 4.56 g/m*3 -0.3 C 0 km/h
Sensor: Nr:Datum:Temp:Abs-Feuchte:Windchill:Wind:
Aussen-T/F 76 02-03-2021 07:15:00 -0.4 C 4.52 g/m*3 -0.4 C 0 km/h
77 02-03-2021 07:20:00 -0.4 C 4.48 g/m*3 -0.4 C 0 km/h
78 02-03-2021 07:25:00 -0.6 C 4.42 g/m*3 -0.6 C 0 km/h
79 02-03-2021 07:30:00 -0.7 C 4.39 g/m*3 -0.7 C 0 km/h
80 02-03-2021 07:35:00 -0.7 C 4.39 g/m*3 -0.7 C 0 km/h
81 02-03-2021 07:40:00 -0.7 C 4.39 g/m*3 -0.7 C 0 km/h
82 02-03-2021 07:45:00 -0.8 C 4.35 g/m*3 -0.8 C 0 km/h
83 02-03-2021 07:50:00 -0.8 C 4.35 g/m*3 -0.8 C 0 km/h
84 02-03-2021 07:55:00 -0.8 C 4.35 g/m*3 -0.8 C 0 km/h
85 02-03-2021 08:00:00 -0.9 C 4.32 g/m*3 -0.9 C 0 km/h
86 02-03-2021 08:05:00 -0.9 C 4.32 g/m*3 -0.9 C 0 km/h
87 02-03-2021 08:10:00 -1 C 4.29 g/m*3 -1 C 0 km/h
88 02-03-2021 08:15:00 -0.9 C 4.32 g/m*3 -0.9 C 0 km/h
89 02-03-2021 08:20:00 -0.9 C 4.32 g/m*3 -0.9 C 0 km/h
90 02-03-2021 08:25:00 -0.8 C 4.35 g/m*3 -0.8 C 0 km/h
91 02-03-2021 08:30:00 -0.8 C 4.35 g/m*3 -0.8 C 0 km/h
92 02-03-2021 08:35:00 -0.8 C 4.35 g/m*3 -0.8 C 0 km/h
93 02-03-2021 08:40:00 -0.8 C 4.35 g/m*3 -0.8 C 0 km/h
94 02-03-2021 08:45:00 -0.8 C 4.35 g/m*3 -0.8 C 0 km/h
95 02-03-2021 08:50:00 -0.7 C 4.43 g/m*3 -0.7 C 0 km/h
96 02-03-2021 08:55:00 -0.7 C 4.43 g/m*3 -0.7 C 0 km/h
97 02-03-2021 09:00:00 -0.6 C 4.46 g/m*3 -0.6 C 0 km/h
98 02-03-2021 09:05:00 -0.5 C 4.49 g/m*3 -0.5 C 0 km/h
99 02-03-2021 09:10:00 -0.4 C 4.52 g/m*3 -0.4 C 0 km/h
100 02-03-2021 09:15:00 -0.3 C 4.56 g/m*3 -0.3 C 0 km/h
Sensor: Nr:Datum:Temp:Abs-Feuchte:Windchill:Wind:
Aussen-T/F 101 02-03-2021 09:20:00 -0.2 C 4.59 g/m*3 -0.2 C 0 km/h
102 02-03-2021 09:25:00 -0.2 C 4.59 g/m*3 -0.2 C 0 km/h
103 02-03-2021 09:30:00 -0.1 C 4.62 g/m*3 -0.1 C 0 km/h
104 02-03-2021 09:35:00 0 C 4.65 g/m*3 0 C 0 km/h
105 02-03-2021 09:40:00 0.1 C 4.68 g/m*3 0.1 C 0 km/h
106 02-03-2021 09:45:00 0.3 C 4.75 g/m*3 0.3 C 0 km/h
107 02-03-2021 09:50:00 0.4 C 4.78 g/m*3 0.4 C 0 km/h
108 02-03-2021 09:55:00 0.5 C 4.81 g/m*3 0.5 C 0 km/h
109 02-03-2021 10:00:00 0.7 C 4.88 g/m*3 0.7 C 0 km/h
110 02-03-2021 10:05:00 0.8 C 4.91 g/m*3 0.8 C 0 km/h
111 02-03-2021 10:10:00 0.9 C 4.95 g/m*3 0.9 C 0 km/h
112 02-03-2021 10:15:00 1 C 4.98 g/m*3 1 C 0 km/h
113 02-03-2021 10:20:00 1.2 C 5.05 g/m*3 1.2 C 0 km/h
114 02-03-2021 10:25:00 1.3 C 5.09 g/m*3 1.3 C 0 km/h
115 02-03-2021 10:30:00 1.6 C 5.25 g/m*3 1.6 C 0 km/h
116 02-03-2021 10:35:00 1.8 C 5.32 g/m*3 1.8 C 0 km/h
117 02-03-2021 10:40:00 2.1 C 5.43 g/m*3 2.1 C 0 km/h
118 02-03-2021 10:45:00 2.3 C 5.5 g/m*3 2.3 C 0 km/h
119 02-03-2021 10:50:00 2.7 C 5.65 g/m*3 2.7 C 0 km/h
120 02-03-2021 10:55:00 3.1 C 5.81 g/m*3 3.1 C 0 km/h
121 02-03-2021 11:00:00 3.4 C 5.92 g/m*3 3.4 C 0 km/h
122 02-03-2021 11:05:00 3.7 C 6.04 g/m*3 3.7 C 0 km/h
123 02-03-2021 11:10:00 4 C 6.17 g/m*3 4 C 0 km/h
124 02-03-2021 11:15:00 4.4 C 6.33 g/m*3 4.4 C 0 km/h
125 02-03-2021 11:20:00 4.8 C 6.5 g/m*3 4.8 C 0 km/h
Sensor: Nr:Datum:Temp:Abs-Feuchte:Windchill:Wind:
Aussen-T/F 126 02-03-2021 11:25:00 5.2 C 6.68 g/m*3 5.2 C 0 km/h
127 02-03-2021 11:30:00 5.6 C 6.86 g/m*3 5.6 C 0 km/h
128 02-03-2021 11:35:00 5.9 C 6.99 g/m*3 5.9 C 0 km/h
129 02-03-2021 11:40:00 6.2 C 7.13 g/m*3 6.2 C 0 km/h
130 02-03-2021 11:45:00 6.3 C 7.18 g/m*3 6.3 C 0 km/h
131 02-03-2021 11:50:00 6.5 C 7.27 g/m*3 6.5 C 0 km/h
132 02-03-2021 11:55:00 6.7 C 7.37 g/m*3 6.7 C 0 km/h
133 02-03-2021 12:00:00 6.9 C 7.47 g/m*3 6.9 C 0 km/h
134 02-03-2021 12:05:00 7.1 C 7.57 g/m*3 7.1 C 0 km/h
135 02-03-2021 12:10:00 7.4 C 7.71 g/m*3 7.4 C 0 km/h
136 02-03-2021 12:15:00 7.7 C 7.78 g/m*3 7.7 C 0 km/h
137 02-03-2021 12:20:00 8.1 C 7.9 g/m*3 8.1 C 0 km/h
138 02-03-2021 12:25:00 8.4 C 7.97 g/m*3 8.4 C 0 km/h
139 02-03-2021 12:30:00 8.9 C 7.97 g/m*3 8.9 C 0 km/h
140 02-03-2021 12:35:00 9.4 C 8.14 g/m*3 9.4 C 0 km/h
141 02-03-2021 12:40:00 10.1 C 8.23 g/m*3 10.1 C 0 km/h
142 02-03-2021 12:45:00 10.7 C 8.25 g/m*3 10.7 C 0 km/h
143 02-03-2021 12:50:00 11.1 C 8.16 g/m*3 11.1 C 0 km/h
144 02-03-2021 12:55:00 11.3 C 8.16 g/m*3 11.3 C 0 km/h
145 02-03-2021 13:00:00 11.6 C 8.21 g/m*3 11.6 C 0 km/h
146 02-03-2021 13:05:00 12 C 8.21 g/m*3 12 C 0 km/h
147 02-03-2021 13:10:00 12.3 C 8.14 g/m*3 12.3 C 0 km/h
148 02-03-2021 13:15:00 12.6 C 8.19 g/m*3 12.6 C 0 km/h
149 02-03-2021 13:20:00 12.9 C 8.23 g/m*3 12.9 C 0 km/h
150 02-03-2021 13:25:00 13.4 C 8.25 g/m*3 13.4 C 0 km/h
Sensor: Nr:Datum:Temp:Abs-Feuchte:Windchill:Wind:
Aussen-T/F 151 02-03-2021 13:30:00 13.8 C 8.34 g/m*3 13.8 C 0 km/h
152 02-03-2021 13:35:00 14.3 C 8.23 g/m*3 14.3 C 0 km/h
153 02-03-2021 13:40:00 14.7 C 8.31 g/m*3 14.7 C 0 km/h
154 02-03-2021 13:45:00 14.9 C 8.28 g/m*3 14.9 C 0 km/h
155 02-03-2021 13:50:00 15.2 C 7.66 g/m*3 15.2 C 0 km/h
156 02-03-2021 13:55:00 15.4 C 7.88 g/m*3 15.4 C 0 km/h
157 02-03-2021 14:00:00 15.6 C 7.71 g/m*3 15.6 C 0 km/h
158 02-03-2021 14:05:00 15.8 C 8.21 g/m*3 15.8 C 0 km/h
159 02-03-2021 14:10:00 16.1 C 8.09 g/m*3 16.1 C 0 km/h
160 02-03-2021 14:15:00 16.5 C 8.14 g/m*3 16.5 C 0 km/h
161 02-03-2021 14:20:00 16.8 C 7.58 g/m*3 16.8 C 0 km/h
162 02-03-2021 14:25:00 16.6 C 7.2 g/m*3 16.6 C 0 km/h
163 02-03-2021 14:30:00 16.2 C 7.03 g/m*3 16.2 C 4.8 km/h
164 02-03-2021 14:35:00 16.1 C 7.13 g/m*3 16.1 C 0 km/h
165 02-03-2021 14:40:00 16.2 C 7.17 g/m*3 16.2 C 3.2 km/h
166 02-03-2021 14:45:00 16.2 C 7.31 g/m*3 16.2 C 0 km/h
167 02-03-2021 14:50:00 16.1 C 7.13 g/m*3 16.1 C 4.8 km/h
168 02-03-2021 14:55:00 15.9 C 7.18 g/m*3 15.9 C 1.6 km/h
169 02-03-2021 15:00:00 15.8 C 7.27 g/m*3 15.8 C 1.6 km/h
170 02-03-2021 15:05:00 15.7 C 7.49 g/m*3 15.7 C 1.6 km/h
171 02-03-2021 15:10:00 15.6 C 7.85 g/m*3 15.6 C 0 km/h
172 02-03-2021 15:15:00 15.4 C 7.09 g/m*3 15.4 C 0 km/h
173 02-03-2021 15:20:00 15.4 C 6.96 g/m*3 15.4 C 3.2 km/h
174 02-03-2021 15:25:00 15.4 C 6.96 g/m*3 15.4 C 4.8 km/h
175 02-03-2021 15:30:00 15.4 C 6.7 g/m*3 15.4 C 0 km/h
Sensor: Nr:Datum:Temp:Abs-Feuchte:Windchill:Wind:
Aussen-T/F 176 02-03-2021 15:35:00 15.5 C 6.87 g/m*3 15.5 C 3.2 km/h
177 02-03-2021 15:40:00 15.6 C 7.18 g/m*3 15.6 C 3.2 km/h
178 02-03-2021 15:45:00 15.7 C 7.36 g/m*3 15.7 C 4.8 km/h
179 02-03-2021 15:50:00 15.7 C 7.63 g/m*3 15.7 C 1.6 km/h
180 02-03-2021 15:55:00 15.8 C 7.67 g/m*3 15.8 C 0 km/h
181 02-03-2021 16:00:00 15.9 C 7.58 g/m*3 15.9 C 1.6 km/h
182 02-03-2021 16:05:00 16 C 6.95 g/m*3 16 C 4.8 km/h
183 02-03-2021 16:10:00 16.1 C 7.68 g/m*3 16.1 C 3.2 km/h
184 02-03-2021 16:15:00 16 C 7.49 g/m*3 16 C 0 km/h
185 02-03-2021 16:20:00 15.9 C 7.31 g/m*3 15.9 C 0 km/h
186 02-03-2021 16:25:00 15.8 C 7.81 g/m*3 15.8 C 0 km/h
187 02-03-2021 16:30:00 15.7 C 7.36 g/m*3 15.7 C 0 km/h
188 02-03-2021 16:35:00 15.7 C 7.89 g/m*3 15.7 C 0 km/h
189 02-03-2021 16:40:00 15.6 C 7.98 g/m*3 15.6 C 0 km/h
190 02-03-2021 16:45:00 15.4 C 7.75 g/m*3 15.4 C 0 km/h
191 02-03-2021 16:50:00 15.3 C 7.18 g/m*3 15.3 C 6.4 km/h
192 02-03-2021 16:55:00 15.3 C 7.7 g/m*3 15.3 C 6.4 km/h
193 02-03-2021 17:00:00 15.2 C 7.66 g/m*3 15.2 C 4.8 km/h
194 02-03-2021 17:05:00 15.1 C 7.61 g/m*3 15.1 C 4.8 km/h
195 02-03-2021 17:10:00 15 C 7.69 g/m*3 15 C 6.4 km/h
196 02-03-2021 17:15:00 14.9 C 7.77 g/m*3 14.9 C 4.8 km/h
197 02-03-2021 17:20:00 14.9 C 7.65 g/m*3 14.9 C 6.4 km/h
198 02-03-2021 17:25:00 14.8 C 7.73 g/m*3 14.8 C 6.4 km/h
199 02-03-2021 17:30:00 14.6 C 7.26 g/m*3 14.6 C 6.4 km/h
200 02-03-2021 17:35:00 14.5 C 7.59 g/m*3 14.5 C 6.4 km/h
Sensor: Nr:Datum:Temp:Abs-Feuchte:Windchill:Wind:
Aussen-T/F 201 02-03-2021 17:40:00 14.3 C 7.37 g/m*3 14.3 C 6.4 km/h
202 02-03-2021 17:45:00 14.1 C 7.52 g/m*3 14.1 C 6.4 km/h
203 02-03-2021 17:50:00 13.7 C 7.34 g/m*3 13.7 C 6.4 km/h
204 02-03-2021 17:55:00 13.2 C 7.23 g/m*3 13.2 C 0 km/h
205 02-03-2021 18:00:00 12.7 C 7.12 g/m*3 12.7 C 8.1 km/h
206 02-03-2021 18:05:00 12.2 C 7.12 g/m*3 12.2 C 6.4 km/h
207 02-03-2021 18:10:00 11.7 C 7.01 g/m*3 11.7 C 6.4 km/h
208 02-03-2021 18:15:00 11.3 C 6.94 g/m*3 11.3 C 8.1 km/h
209 02-03-2021 18:20:00 10.9 C 6.86 g/m*3 10.04 C 8.1 km/h
210 02-03-2021 18:25:00 10.7 C 6.88 g/m*3 9.81 C 8.1 km/h
211 02-03-2021 18:30:00 10.5 C 6.89 g/m*3 9.95 C 6.4 km/h
212 02-03-2021 18:35:00 10.3 C 6.8 g/m*3 10.3 C 4.8 km/h
213 02-03-2021 18:40:00 10.2 C 6.85 g/m*3 10.2 C 4.8 km/h
214 02-03-2021 18:45:00 9.9 C 6.82 g/m*3 8.87 C 8.1 km/h
215 02-03-2021 18:50:00 9.8 C 6.77 g/m*3 9.8 C 4.8 km/h
216 02-03-2021 18:55:00 9.6 C 6.78 g/m*3 9.6 C 4.8 km/h
217 02-03-2021 19:00:00 9.4 C 6.69 g/m*3 9.4 C 4.8 km/h
218 02-03-2021 19:05:00 9.3 C 6.74 g/m*3 8.56 C 6.4 km/h
219 02-03-2021 19:10:00 9.2 C 6.7 g/m*3 9.2 C 4.8 km/h
220 02-03-2021 19:15:00 9 C 6.61 g/m*3 9 C 4.8 km/h
221 02-03-2021 19:20:00 8.9 C 6.66 g/m*3 8.9 C 3.2 km/h
222 02-03-2021 19:25:00 8.8 C 6.7 g/m*3 8.8 C 4.8 km/h
223 02-03-2021 19:30:00 8.7 C 6.66 g/m*3 8.7 C 3.2 km/h
224 02-03-2021 19:35:00 8.6 C 6.62 g/m*3 8.6 C 3.2 km/h
225 02-03-2021 19:40:00 8.5 C 6.57 g/m*3 7.64 C 6.4 km/h
Sensor: Nr:Datum:Temp:Abs-Feuchte:Windchill:Wind:
Aussen-T/F 226 02-03-2021 19:45:00 8.4 C 6.7 g/m*3 7.52 C 6.4 km/h
227 02-03-2021 19:50:00 8.3 C 6.66 g/m*3 7.41 C 6.4 km/h
228 02-03-2021 19:55:00 8.2 C 6.7 g/m*3 8.2 C 4.8 km/h
229 02-03-2021 20:00:00 8.1 C 6.66 g/m*3 8.1 C 4.8 km/h
230 02-03-2021 20:05:00 7.9 C 6.57 g/m*3 7.9 C 4.8 km/h
231 02-03-2021 20:10:00 7.8 C 6.61 g/m*3 6.83 C 6.4 km/h
232 02-03-2021 20:15:00 7.7 C 6.57 g/m*3 7.7 C 4.8 km/h
233 02-03-2021 20:20:00 7.6 C 6.61 g/m*3 7.6 C 4.8 km/h
234 02-03-2021 20:25:00 7.5 C 6.56 g/m*3 6.48 C 6.4 km/h
235 02-03-2021 20:30:00 7.4 C 6.52 g/m*3 7.4 C 4.8 km/h
236 02-03-2021 20:35:00 7.3 C 6.48 g/m*3 6.25 C 6.4 km/h
237 02-03-2021 20:40:00 7.3 C 6.48 g/m*3 7.3 C 4.8 km/h
238 02-03-2021 20:45:00 7.2 C 6.52 g/m*3 7.2 C 4.8 km/h
239 02-03-2021 20:50:00 7.2 C 6.52 g/m*3 7.2 C 4.8 km/h
240 02-03-2021 20:55:00 7.1 C 6.47 g/m*3 7.1 C 4.8 km/h
241 02-03-2021 21:00:00 7.1 C 6.47 g/m*3 6.02 C 6.4 km/h
242 02-03-2021 21:05:00 6.9 C 6.39 g/m*3 6.9 C 3.2 km/h
243 02-03-2021 21:10:00 6.8 C 6.35 g/m*3 6.8 C 1.6 km/h
244 02-03-2021 21:15:00 6.6 C 6.27 g/m*3 6.6 C 0 km/h
245 02-03-2021 21:20:00 6.4 C 6.26 g/m*3 6.4 C 4.8 km/h
246 02-03-2021 21:25:00 6.2 C 6.25 g/m*3 6.2 C 0 km/h
247 02-03-2021 21:30:00 6.1 C 6.14 g/m*3 6.1 C 0 km/h
248 02-03-2021 21:35:00 5.8 C 6.09 g/m*3 5.8 C 0 km/h
249 02-03-2021 21:40:00 5.8 C 6.16 g/m*3 5.8 C 0 km/h
250 02-03-2021 21:45:00 5.7 C 6.19 g/m*3 5.7 C 3.2 km/h
Sensor: Nr:Datum:Temp:Abs-Feuchte:Windchill:Wind:
Aussen-T/F 251 02-03-2021 21:50:00 5.7 C 6.19 g/m*3 5.7 C 3.2 km/h
252 02-03-2021 21:55:00 5.5 C 6.11 g/m*3 5.5 C 0 km/h

Legende:
   Min
   Max


Maximal/Minimal-Werte vom 14.04.2020 - 16.05.2020

Sensor Min Max Avg
Temp
(Aussen-T/F)
-0.1 °C
15-04-2020  06:55:00
26.2 °C
17-04-2020  18:05:00
11.98 °C

Die Daten stammen von einer Davis Vantage Pro 2 Wetter-Station und werden unter Linux mit der Software wview2wettercgi und aufbereitet. Alle Angaben erfolgen ohne Gewähr für ihre Vollständigkeit oder Richtigkeit.
Kontakt: Rainer Krienke krienke@uni-koblenz.de . Meine Webseiten an der Uni Koblenz oder privat.
Version: $Revision: 0.78 $